Tracking 27401 objects as of 4-Jun-2023
HD Live streaming from Space Station
objects crossing your sky now

STARLINK-4575

Track STARLINK-4575 now!
10-day predictions
STARLINK-4575 is classified as:


NORAD ID: 53565
Int'l Code: 2022-101AQ
Perigee: 546.3 km
Apogee: 547.4 km
Inclination: 53.2 °
Period: 95.4 minutes
Semi major axis: 6917 km
RCS: Unknown
Launch date: August 19, 2022
Source: United States (US)
Launch site: AIR FORCE EASTERN TEST RANGE (AFETR)
Your satellite tracking list
Your tracking list is empty




NASA's NSSDC Master Catalog

Two Line Element Set (TLE):
1 53565U 22101AQ  23154.73166893  .00001032  00000-0  82906-4 0  9993
2 53565  53.2161 268.1531 0000806  92.6412 267.4673 15.08838573 44638
Source of the keplerian elements: AFSPC